Location: Holyhead Bay
(53.3667°N, 4.6667°W)
Time: 22:17:53
(UTC+00:00)

Cosmos 1408 Rocket - Pass Details

Date: 16 April 2021
Orbit: 601 x 631 km, 82.6° (Epoch: 16 May)

Event Time Altitude Azimuth Distance (km) Brightness Sun altitude
Rises 21:26:05 0° 356° (N) 2,867 7.8 -16.5°
Reaches altitude 10° 21:28:38 10° 10° (N) 1,959 6.6 -16.7°
Maximum altitude 21:32:15 25° 66° (ENE) 1,225 4.9 -17.1°
Enters shadow 21:33:19 23° 90° (E) 1,305 4.8 -17.2°
